Torna al catalogo

FENGYUN 1C DEB

AttivoSSO
NORAD 30391·DEBRIS·🇨🇳 China

Lanciato May 10, 1999 da Taiyuan Satellite Launch Center

Loading…

Prossimi Passaggi (prossime 24 ore)

TLE

AggiornatoSource: Space-Track

Epoca: Sep 14, 2026, 02:39 UTC

1 30391U 99025ADE 26257.11091525  .00001243  00000-0  62157-3 0  9991
2 30391  98.7584 304.1811 0071420 193.5382 194.2238 14.17239307  7667

Traccia FENGYUN 1C DEB in tempo reale con AllMySat

Download on the App Store